This is the latest recevied weather packets stored in our database for station/object KC3VCX. If no packets are shown the sender has not sent any weather packets the latest 10 day(s).
| Time | Temp. | Humidity | Pressure | Rain* | Wind** | Luminosity | Snow |
|---|---|---|---|---|---|---|---|
| 1777570210 | 6.67° C | 81% | 1015 hPa | 0 mm | - | 53 W/m² | - |
| 1777569904 | 7.22° C | 79% | 1014.7 hPa | 0 mm | - | 56 W/m² | - |
| 1777569601 | 7.22° C | 80% | 1014.6 hPa | 0 mm | - | 148 W/m² | - |
| 1777569297 | 7.22° C | 80% | 1015 hPa | 0 mm | - | 174 W/m² | - |
| 1777568994 | 6.67° C | 81% | 1015 hPa | 0 mm | - | 178 W/m² | - |
| 1777568690 | 6.67° C | 82% | 1014.7 hPa | 0 mm | - | 150 W/m² | - |
| 1777568388 | 7.22° C | 84% | 1015 hPa | 0 mm | - | 214 W/m² | - |
| 1777568085 | 6.67° C | 85% | 1015.2 hPa | 0 mm | - | 436 W/m² | - |
| 1777567781 | 6.67° C | 86% | 1015 hPa | 0 mm | - | 509 W/m² | - |
| 1777567477 | 6.11° C | 87% | 1015 hPa | 0 mm | - | 319 W/m² | - |
| 1777567175 | 6.11° C | 86% | 1014.7 hPa | 0 mm | - | 171 W/m² | - |
| 1777566873 | 6.67° C | 84% | 1014.7 hPa | 0 mm | - | 86 W/m² | - |
| 1777566571 | 7.22° C | 82% | 1014.6 hPa | 0 mm | - | 158 W/m² | - |
| 1777566268 | 7.22° C | 83% | 1014.5 hPa | 0 mm | - | 266 W/m² | - |
| 1777565966 | 6.67° C | 84% | 1014.7 hPa | 0 mm | - | 561 W/m² | - |
| 1777565661 | 6.11° C | 86% | 1014.7 hPa | 0 mm | - | 334 W/m² | - |
| 1777565357 | 6.11° C | 87% | 1014.6 hPa | 0 mm | - | 189 W/m² | - |
| 1777565053 | 6.11° C | 87% | 1014.5 hPa | 0 mm | - | 85 W/m² | - |
| 1777564749 | 6.11° C | 87% | 1014.5 hPa | 0 mm | - | 155 W/m² | - |
| 1777564444 | 6.11° C | 88% | 1014.7 hPa | 0 mm | - | 240 W/m² | - |
| 1777564140 | 6.11° C | 89% | 1014.4 hPa | 0 mm | - | 136 W/m² | - |
| 1777563836 | 5.56° C | 89% | 1014.6 hPa | 0 mm | - | 113 W/m² | - |
| 1777563533 | 5.56° C | 90% | 1014.5 hPa | 0 mm | - | 96 W/m² | - |
| 1777563232 | 5.56° C | 90% | 1014.4 hPa | 0 mm | - | 68 W/m² | - |
| 1777562930 | 6.11° C | 89% | 1014.4 hPa | 0 mm | - | 74 W/m² | - |
* Rain latest hour (hover to see other rain measurements)
** Current wind speed in m/s (hover to see current wind gust speed)